Regional Weather Roundup
Issued by NWS Little Rock, AR

Home | Current Version | Previous Version | Graphics & Text | Print | Product List | Glossary On
Versions: 1 2 3 4 5 6 7 8 9 10 11 12 13 14 15 16 17 18 19 20 21 22 23 24 25 26 27 28 29 30 31 32 33 34 35 36 37 38 39 40 41 42 43 44 45 46 47
000
ASUS44 KLZK 020805
RWRLZK

WEATHER ROUNDUP FOR ARKANSAS
NATIONAL WEATHER SERVICE LITTLE ROCK AR
300 AM CDT SUN AUG 02 2015

NOTE: "FAIR" INDICATES FEW OR NO CLOUDS BELOW 12,000 FEET WITH NO
SIGNIFICANT WEATHER AND/OR OBSTRUCTIONS TO VISIBILITY.

ARZ001-003-010-029-020900-
NORTHWEST ARKANSAS

CITY           SKY/WX    TMP DP  RH WIND       PRES   REMARKS
FAYETTEVILLE   PTCLDY    67  67 100 S3        30.02S
FORT SMITH     CLEAR     75  70  84 E3        29.96F
HARRISON       CLEAR     69  65  86 CALM      30.02S
BENTONVILLE    CLEAR     72  64  78 S3        30.01F
ROGERS         PTCLDY    71  69  93 SE5       30.02F
SILOAM SPGS    CLEAR     70  63  78 CALM      30.00S
HIGHFILL       PTCLDY    69  68  96 S3        30.01F
$$

ARZ004-005-016-020900-
NORTH CENTRAL ARKANSAS

CITY           SKY/WX    TMP DP  RH WIND       PRES   REMARKS
BATESVILLE     CLEAR     70  66  88 CALM      29.97S
FLIPPIN        CLEAR     70  64  83 NE5       29.97F
MTN HOME       CLEAR     70  67  90 CALM      29.99S
$$

ARZ040-041-020900-
WEST CENTRAL ARKANSAS

CITY           SKY/WX    TMP DP  RH WIND       PRES   REMARKS
MENA           CLEAR     68  63  83 CALM      30.01S
MOUNT IDA      CLEAR     68  66  93 CALM      29.97S
$$

ARZ009-017-025-026-028-020900-
NORTHEAST ARKANSAS

CITY           SKY/WX    TMP DP  RH WIND       PRES   REMARKS
JONESBORO      CLEAR     70  69  97 N5        29.96S
NEWPORT        CLEAR     76  72  87 CALM      29.97S
WALNUT RIDGE   CLEAR     75  70  83 CALM      29.96S
BLYTHEVILLE    CLEAR     74  72  93 CALM      29.96S
$$

ARZ022-023-033-042-044-020900-
CENTRAL ARKANSAS

CITY           SKY/WX    TMP DP  RH WIND       PRES   REMARKS
LITTLE ROCK    MOCLDY    73  68  84 CALM      29.96S
N LITTLE ROCK    N/A     75  65  70 W2        29.96S
JACKSONVILLE   CLEAR     69  66  89 W5        29.96S
SEARCY         CLEAR     69  68  96 CALM      29.98S
HOT SPRINGS    CLEAR     72  64  76 CALM      29.98S
RUSSELLVILLE   CLEAR     70  67  90 CALM      29.97S
$$

ARZ036-020900-
EAST ARKANSAS

CITY           SKY/WX    TMP DP  RH WIND       PRES   REMARKS
WEST MEMPHIS   CLEAR     70  69  97 E3        29.95R
$$

ARZ050-053-066-070-073-020900-
SOUTHWEST ARKANSAS

CITY           SKY/WX    TMP DP  RH WIND       PRES   REMARKS
ARKADELPHIA    FAIR      68  68 100 CALM      29.96S
CAMDEN         CLEAR     66  63  88 CALM      29.96S
TEXARKANA      CLEAR     70  63  78 CALM      29.96F
EL DORADO      PTCLDY    67  61  81 CALM      29.96S
DE QUEEN       CLEAR     68  67  96 CALM      29.95F
$$

ARZ056-057-069-020900-
SOUTHEAST ARKANSAS

CITY           SKY/WX    TMP DP  RH WIND       PRES   REMARKS
PINE BLUFF     CLEAR     70  67  90 S3        29.96S
STUTTGART      CLEAR     73  66  78 MISG      29.95S
MONTICELLO     CLEAR     69  67  93 CALM      29.96S

$$




USA.gov is the U.S. government's official web portal to all federal, state and local government web resources and services.